Location: Ammerl�gen
(47.2167°N, 9.6000°E)
Time: 15:34:22
(UTC+00:00)

MetOp-B - Pass Details

Date: 21 April 2021
Orbit: 819 x 822 km, 98.7° (Epoch: 07 May)

Event Time Altitude Azimuth Distance (km) Brightness Sun altitude
Exits shadow 20:30:19 24° 183° (S) 1,657 5.4 -19.6°
Maximum altitude 20:33:35 63° 258° (WSW) 917 4.5 -20.0°
Drops below altitude 10° 20:38:55 10° 340° (NNW) 2,428 7.6 -20.6°
Sets 20:41:18 0° 343° (NNW) 3,364 8.4 -20.9°
